z/d,0,0,50,50,100,100,200,200,300,300,400,400,500,500,750,750,1000,1000,2000,2000,3000,3000,4000,4000,4700,4700
2016.10.28-01:00,1.11,75.24,1.13,81.72,1.02,84.76,.99,81.67,.93,82.33,.87,78.10,.78,73.53,.59,78.42,.37,72.73,.21,47.52,.17,26.56,.24,32.50,.03,90.00
2016.10.28-02:00,1.12,77.70,1.12,82.39,1.02,84.37,.97,81.16,.89,80.37,.84,77.28,.77,73.31,.56,82.50,.35,74.27,.20,48.70,.16,24.18,.22,29.73,.03,90.00
2016.10.28-03:00,1.12,80.67,1.10,83.82,1.02,84.87,.96,80.32,.87,77.81,.83,76.12,.76,72.77,.52,85.54,.33,75.35,.19,51.67,.15,24.35,.21,27.25,.03,90.00
2016.10.28-04:00,1.09,84.80,1.06,86.07,1.00,86.05,.96,79.38,.88,75.26,.83,74.97,.77,72.32,.50,87.22,.32,75.67,.20,55.28,.16,27.56,.21,26.42,.03,90.00
2016.10.28-05:00,1.00,89.39,1.00,89.05,.97,87.39,.96,78.31,.91,72.89,.85,73.68,.80,72.09,.48,87.09,.32,74.83,.21,58.60,.17,33.22,.23,27.95,.03,90.00
2016.10.28-06:00,.97,93.89,.96,92.63,.94,88.52,.99,77.21,.95,70.99,.89,72.31,.84,72.11,.46,85.08,.32,72.90,.23,61.07,.18,38.94,.25,30.63,.04,90.00
2016.10.28-07:00,.93,97.85,.95,96.24,.92,89.08,1.02,76.19,1.02,69.82,.94,71.21,.88,72.33,.45,81.22,.33,69.88,.25,62.32,.20,43.29,.27,33.34,.05,90.00
2016.10.28-08:00,.92,101.38,.96,99.22,.93,89.08,1.07,75.56,1.08,69.61,1.00,70.85,.92,72.89,.44,76.31,.34,66.14,.26,62.44,.21,46.03,.29,35.53,.06,90.00
2016.10.28-09:00,.91,101.96,.97,100.68,.94,88.46,1.12,75.55,1.14,70.48,1.04,71.47,.94,74.09,.45,72.06,.36,62.86,.27,61.70,.21,46.74,.30,36.43,.06,90.00
2016.10.28-10:00,.87,97.04,.97,100.31,.94,87.16,1.15,76.01,1.18,71.96,1.07,72.69,.95,75.76,.47,69.45,.38,60.88,.26,60.58,.20,44.97,.30,35.60,.06,90.00
2016.10.28-11:00,.79,87.17,.93,98.22,.94,85.35,1.15,76.67,1.18,73.55,1.07,74.08,.93,77.66,.48,68.43,.41,60.54,.25,59.76,.18,41.02,.28,33.49,.06,90.00
2016.10.28-12:00,.76,77.91,.88,94.52,.93,83.37,1.15,77.44,1.17,75.05,1.05,75.54,.90,79.62,.48,68.34,.42,61.57,.22,59.04,.15,34.82,.27,30.64,.05,90.00
2016.10.28-13:00,.85,68.17,.84,89.60,.93,81.71,1.14,78.32,1.15,76.40,1.03,77.06,.86,81.45,.47,68.36,.42,63.34,.19,57.96,.13,26.54,.25,27.45,.04,90.00
2016.10.28-14:00,1.00,65.85,.83,84.51,.95,80.80,1.13,79.20,1.14,77.56,1.01,78.56,.82,82.94,.46,68.37,.42,65.98,.17,57.31,.12,18.47,.23,24.69,.04,90.00
2016.10.28-15:00,1.09,64.31,.84,80.82,.97,81.11,1.14,80.18,1.14,78.60,1.00,79.80,.79,83.71,.46,68.49,.41,69.49,.16,57.26,.12,12.30,.22,22.08,.03,90.00
2016.10.28-16:00,1.13,64.91,.85,79.10,.99,82.49,1.15,81.38,1.14,79.55,.99,80.51,.77,83.49,.47,68.72,.41,73.35,.16,58.48,.13,12.38,.22,21.52,.03,90.00
2016.10.28-17:00,1.10,68.35,.86,78.58,1.01,84.07,1.17,82.62,1.16,80.35,.99,80.60,.77,82.35,.48,68.57,.40,76.26,.17,59.68,.15,18.34,.23,24.02,.03,90.00
2016.10.28-18:00,1.16,73.81,.89,78.62,1.02,85.12,1.19,83.73,1.18,81.17,1.00,80.40,.77,80.73,.50,68.01,.38,77.75,.20,60.02,.17,26.50,.25,28.67,.04,90.00
2016.10.28-19:00,1.26,80.32,.93,79.36,1.04,85.61,1.21,84.59,1.20,82.18,1.03,80.20,.79,78.99,.52,67.41,.36,77.72,.22,59.42,.20,33.17,.27,33.19,.04,90.00
2016.10.28-20:00,1.30,86.44,.99,80.87,1.06,85.77,1.22,85.17,1.21,83.24,1.04,79.94,.81,77.25,.55,66.92,.36,75.89,.24,58.45,.23,37.89,.30,36.66,.05,90.00
2016.10.28-21:00,1.33,89.90,1.04,82.92,1.08,85.89,1.22,85.56,1.20,84.25,1.04,79.74,.82,75.77,.59,66.92,.36,72.82,.25,57.48,.24,40.78,.31,38.67,.05,90.00
2016.10.28-22:00,1.33,92.28,1.08,84.84,1.09,86.07,1.20,85.85,1.17,85.05,1.03,79.73,.83,74.70,.61,67.76,.37,69.59,.25,56.19,.24,41.93,.32,39.14,.05,90.00
2016.10.28-23:00,1.34,93.92,1.09,85.96,1.10,86.17,1.17,85.88,1.12,85.40,1.00,79.81,.81,73.92,.63,69.79,.38,67.50,.25,54.67,.22,41.48,.30,38.18,.05,90.00
2016.10.28-24:00,1.34,94.96,1.09,86.10,1.09,86.02,1.14,85.50,1.06,85.04,.97,79.67,.80,73.16,.63,72.97,.39,66.97,.23,53.04,.20,39.40,.28,35.86,.04,90.00
2016.10.29-01:00,1.32,95.76,1.07,85.54,1.08,85.70,1.10,84.78,1.01,84.01,.93,79.14,.78,72.25,.61,76.93,.39,67.55,.22,51.55,.17,35.77,.25,32.60,.03,90.00
2016.10.29-02:00,1.29,96.07,1.07,84.65,1.07,85.31,1.08,83.92,.97,82.47,.89,78.12,.76,71.11,.58,80.96,.38,68.63,.20,50.96,.14,31.17,.23,29.07,.03,90.00
2016.10.29-03:00,1.29,97.02,1.06,83.93,1.07,85.17,1.07,83.24,.95,80.70,.87,76.71,.76,69.84,.54,84.25,.37,69.93,.19,52.19,.13,26.53,.21,25.61,.02,90.00
2016.10.29-04:00,1.26,101.85,1.05,83.53,1.06,85.32,1.06,82.87,.95,79.01,.87,75.26,.78,68.93,.51,86.34,.35,71.34,.19,55.68,.12,24.18,.20,23.29,.02,90.00
2016.10.29-05:00,1.09,110.45,1.03,83.26,1.05,85.50,1.06,82.69,.97,77.63,.88,74.17,.82,68.96,.48,86.54,.35,71.82,.20,59.84,.13,26.24,.21,23.69,.03,90.00
2016.10.29-06:00,.94,116.24,.99,83.27,1.03,85.65,1.06,82.52,1.00,76.65,.91,73.56,.87,70.00,.46,84.65,.35,70.96,.21,63.11,.15,31.45,.23,26.70,.03,90.00
2016.10.29-07:00,.83,118.90,.94,83.82,1.01,85.77,1.06,82.07,1.03,75.88,.96,73.14,.92,71.58,.45,80.74,.35,68.85,.23,64.69,.17,36.73,.26,30.55,.04,90.00
2016.10.29-08:00,.75,120.58,.92,85.05,1.01,86.10,1.08,81.44,1.08,75.46,1.01,73.02,.97,73.43,.45,75.65,.36,66.22,.24,64.58,.19,40.46,.28,33.83,.05,90.00
2016.10.29-09:00,.69,122.75,.92,86.40,1.02,86.55,1.10,80.67,1.13,75.45,1.05,73.37,1.01,75.43,.47,70.80,.38,64.07,.25,63.39,.20,41.99,.29,35.60,.06,90.00
2016.10.29-10:00,.63,121.60,.92,86.59,1.03,86.34,1.12,79.42,1.16,75.55,1.08,73.99,1.02,77.37,.49,67.39,.40,63.16,.25,61.88,.20,41.69,.30,35.84,.06,90.00
2016.10.29-11:00,.57,117.92,.93,85.04,1.02,85.02,1.12,77.67,1.17,75.59,1.09,74.77,1.00,79.17,.52,65.92,.42,63.62,.23,60.40,.19,39.78,.29,34.83,.06,90.00
2016.10.29-12:00,.52,112.29,.92,82.09,1.01,82.84,1.12,75.96,1.17,75.72,1.08,75.82,.97,80.91,.53,66.23,.42,65.28,.21,58.74,.17,35.65,.28,32.52,.05,90.00
2016.10.29-13:00,.47,100.97,.92,78.19,.99,80.15,1.12,74.68,1.16,76.03,1.06,77.12,.91,82.54,.53,67.90,.42,67.89,.18,56.86,.15,29.04,.26,29.25,.04,90.00
2016.10.29-14:00,.47,86.42,.91,73.79,.99,77.50,1.12,74.04,1.15,76.57,1.03,78.55,.86,83.80,.51,70.15,.41,70.94,.16,54.79,.13,20.94,.24,25.98,.04,90.00
2016.10.29-15:00,.51,75.61,.92,70.12,.99,75.79,1.14,74.38,1.15,77.67,1.00,80.11,.81,84.43,.50,71.95,.40,73.85,.15,52.99,.12,13.63,.22,23.45,.03,90.00
2016.10.29-16:00,.55,68.69,.94,68.00,1.00,75.22,1.15,75.65,1.16,79.42,.99,81.70,.78,84.25,.48,72.67,.38,76.24,.15,52.64,.12,11.16,.21,22.65,.03,90.00
2016.10.29-17:00,.60,64.11,.95,66.80,1.01,75.21,1.18,77.50,1.17,81.60,.99,83.18,.77,83.50,.48,72.36,.37,77.69,.16,53.66,.13,15.42,.22,24.49,.03,90.00
2016.10.29-18:00,.63,61.48,.96,65.48,1.01,75.04,1.19,79.41,1.19,83.82,.99,84.38,.79,82.62,.50,71.45,.35,77.67,.19,55.15,.15,23.97,.23,28.88,.03,90.00
2016.10.29-19:00,.68,60.30,.97,64.05,1.01,74.56,1.20,80.99,1.20,85.71,1.00,85.07,.81,81.73,.53,70.30,.35,75.83,.22,56.70,.18,32.18,.25,33.74,.04,90.00
2016.10.29-20:00,.74,60.61,1.00,63.68,1.03,74.25,1.22,82.24,1.20,87.19,1.01,85.32,.84,80.89,.56,69.28,.35,72.34,.25,58.24,.21,37.71,.28,37.16,.05,90.00
2016.10.29-21:00,.81,63.01,1.05,64.71,1.05,74.28,1.23,83.13,1.20,88.26,1.01,85.23,.85,80.03,.60,68.50,.36,67.82,.26,59.65,.23,40.99,.30,39.00,.05,90.00
2016.10.29-22:00,.89,66.25,1.10,66.74,1.08,74.52,1.22,83.55,1.17,88.85,1.00,84.78,.86,79.03,.63,68.19,.37,63.39,.27,60.48,.24,42.70,.31,39.67,.05,90.00
2016.10.29-23:00,.94,70.23,1.13,69.26,1.09,74.82,1.20,83.36,1.12,88.86,.97,83.89,.84,77.88,.65,68.91,.40,60.47,.26,60.43,.23,42.97,.31,39.18,.05,90.00
2016.10.29-24:00,.97,74.55,1.15,71.71,1.08,74.97,1.16,82.50,1.05,88.06,.92,82.44,.82,76.67,.66,71.25,.42,59.94,.24,59.32,.21,41.64,.29,37.35,.04,90.00
2016.10.30-01:00,.98,78.04,1.15,73.62,1.07,74.69,1.12,81.07,.99,86.27,.88,80.38,.79,75.47,.64,75.34,.43,61.68,.22,57.19,.18,38.47,.26,34.05,.04,90.00
2016.10.30-02:00,.97,80.67,1.13,74.95,1.05,73.99,1.09,79.55,.93,83.61,.85,77.96,.76,74.28,.61,80.43,.42,64.66,.20,54.75,.15,33.38,.23,29.44,.03,90.00
2016.10.30-03:00,.95,82.15,1.11,75.92,1.04,73.07,1.07,78.42,.90,80.51,.84,75.62,.75,72.97,.56,85.07,.41,67.66,.18,53.68,.12,27.21,.21,24.29,.02,90.00
2016.10.30-04:00,.92,82.97,1.07,76.73,1.03,72.27,1.07,77.96,.89,77.60,.84,73.96,.75,71.78,.51,87.82,.39,69.97,.17,55.43,.11,22.55,.20,20.40,.02,90.00
2016.10.30-05:00,.88,84.65,1.02,77.43,1.02,71.83,1.06,78.18,.91,75.50,.87,73.42,.77,71.25,.46,87.66,.38,71.30,.17,59.35,.10,22.31,.20,19.61,.02,90.00
2016.10.30-06:00,.80,86.12,.95,77.59,1.01,71.53,1.06,78.74,.93,74.26,.90,73.83,.81,71.62,.43,84.38,.37,71.71,.18,63.47,.12,26.59,.22,22.29,.03,90.00
2016.10.30-07:00,.72,87.34,.87,76.84,.99,71.01,1.05,79.13,.96,73.40,.93,74.56,.86,72.57,.43,79.03,.37,71.42,.20,66.06,.14,32.25,.25,26.94,.04,90.00
2016.10.30-08:00,.64,86.93,.80,75.49,.98,70.45,1.04,79.09,.99,72.67,.96,75.30,.90,73.84,.45,73.52,.38,70.77,.21,66.45,.16,36.58,.27,31.65,.05,90.00
2016.10.30-09:00,.59,85.38,.77,74.21,.98,70.32,1.04,78.53,1.03,72.12,.99,76.10,.94,75.29,.48,69.21,.40,70.00,.22,64.81,.19,38.75,.29,35.21,.05,90.00
2016.10.30-10:00,.58,83.54,.76,73.03,1.00,70.49,1.04,77.22,1.07,71.73,1.01,76.95,.96,76.70,.52,66.39,.40,69.28,.22,61.96,.20,39.22,.30,37.39,.06,90.00
2016.10.30-11:00,.57,79.63,.76,71.11,1.02,70.30,1.04,75.02,1.09,71.43,1.01,77.79,.96,78.04,.55,65.23,.41,69.09,.22,58.82,.19,38.09,.29,37.97,.06,90.00
2016.10.30-12:00,.57,73.94,.77,67.95,1.02,69.44,1.03,72.21,1.10,71.24,.99,78.65,.94,79.35,.57,65.68,.41,69.69,.21,55.79,.18,35.02,.27,36.72,.05,90.00
2016.10.30-13:00,.59,67.11,.80,64.00,1.02,68.21,1.02,69.46,1.09,71.41,.96,79.58,.90,80.71,.57,67.56,.40,71.13,.19,52.91,.15,29.51,.25,33.59,.04,90.00
2016.10.30-14:00,.63,59.83,.83,59.96,1.02,66.99,1.02,67.34,1.08,72.00,.92,80.45,.85,81.93,.56,70.29,.38,73.02,.17,50.39,.13,21.97,.22,29.31,.03,90.00
2016.10.30-15:00,.70,53.47,.86,56.71,1.01,66.31,1.03,66.29,1.07,73.14,.89,81.07,.81,82.66,.53,72.88,.36,74.49,.15,48.57,.12,14.55,.20,25.28,.02,90.00
2016.10.30-16:00,.76,51.14,.89,55.12,1.00,66.67,1.05,66.59,1.07,74.90,.87,81.28,.78,82.55,.51,74.49,.34,74.99,.15,48.39,.11,10.91,.19,22.90,.02,90.00
2016.10.30-17:00,.79,51.24,.92,55.28,.99,67.99,1.07,68.01,1.08,77.04,.86,80.94,.77,81.55,.49,74.77,.32,74.52,.16,50.33,.11,13.60,.19,22.93,.02,90.00
2016.10.30-18:00,.81,51.76,.92,56.19,.97,69.68,1.09,70.04,1.09,79.29,.87,80.19,.77,80.08,.49,73.94,.32,73.10,.18,53.38,.13,21.16,.21,25.36,.02,90.00
2016.10.30-19:00,.80,52.01,.93,56.86,.95,70.94,1.11,72.11,1.10,81.34,.89,79.17,.80,78.62,.51,72.39,.33,70.71,.21,56.47,.16,29.73,.23,29.22,.03,90.00
2016.10.30-20:00,.81,52.62,.94,57.63,.94,71.65,1.12,74.00,1.11,83.05,.92,78.01,.83,77.39,.54,70.48,.34,67.40,.24,58.95,.19,36.43,.26,32.92,.04,90.00
2016.10.30-21:00,.84,54.69,.97,59.48,.95,72.22,1.14,75.68,1.12,84.29,.94,76.80,.86,76.38,.57,68.55,.36,63.72,.27,60.77,.22,40.88,.29,35.67,.04,90.00
2016.10.30-22:00,.87,58.57,1.02,62.89,.96,72.99,1.14,77.01,1.10,84.85,.96,75.50,.88,75.36,.60,66.72,.38,60.04,.27,61.93,.24,43.71,.31,37.57,.05,90.00
2016.10.30-23:00,.89,63.74,1.05,67.39,.96,73.81,1.12,77.76,1.06,84.54,.96,74.14,.89,74.33,.63,65.54,.41,57.24,.27,62.34,.24,45.12,.32,38.48,.05,90.00
2016.10.30-24:00,.88,68.92,1.06,71.94,.94,74.03,1.08,77.57,1.00,83.09,.95,72.80,.88,73.57,.65,65.97,.43,56.68,.25,61.91,.23,44.89,.31,37.95,.05,90.00
2016.10.31-01:00,.86,73.06,1.04,75.75,.91,73.15,1.02,76.27,.93,80.40,.93,71.73,.86,73.40,.67,68.55,.46,58.80,.22,60.59,.19,42.49,.28,35.51,.04,90.00
2016.10.31-02:00,.81,75.75,1.00,78.54,.88,71.27,.98,74.12,.87,76.69,.91,71.16,.84,73.81,.66,72.82,.47,62.69,.20,58.67,.16,37.34,.25,31.27,.03,90.00
2016.10.31-03:00,.76,77.48,.95,80.64,.87,69.38,.95,71.97,.85,72.85,.91,71.22,.81,74.31,.63,77.47,.46,66.88,.17,56.80,.12,29.35,.22,26.33,.02,90.00
2016.10.31-04:00,.71,79.11,.90,82.67,.88,68.66,.96,70.77,.85,70.04,.91,71.93,.80,74.41,.58,81.26,.44,70.40,.16,55.88,.10,20.34,.21,22.62,.02,90.00
2016.10.31-05:00,.65,81.03,.84,84.93,.89,69.46,.97,70.81,.88,68.71,.93,73.11,.79,74.05,.52,83.32,.41,72.90,.15,56.53,.09,14.96,.20,21.74,.02,90.00
2016.10.31-06:00,.57,82.98,.77,87.25,.90,71.58,.98,71.91,.92,68.70,.95,74.62,.81,73.69,.48,83.12,.38,74.39,.16,58.47,.10,16.34,.21,23.87,.02,90.00
2016.10.31-07:00,.48,83.81,.69,88.72,.89,74.43,.99,73.46,.95,69.35,.98,76.19,.84,73.70,.46,80.68,.37,74.92,.18,60.41,.12,21.88,.23,27.75,.03,90.00
2016.10.31-08:00,.40,82.17,.62,88.33,.88,77.57,.99,74.88,.99,70.16,1.00,77.55,.87,74.11,.46,77.05,.37,74.67,.20,61.25,.15,27.34,.25,31.70,.04,90.00
2016.10.31-09:00,.34,77.86,.58,86.17,.87,80.81,.99,75.88,1.02,71.01,1.02,78.65,.91,74.70,.49,73.42,.38,73.64,.21,60.69,.18,31.40,.27,35.02,.05,90.00
2016.10.31-10:00,.31,72.61,.57,83.59,.87,83.82,.99,76.27,1.05,71.78,1.02,79.44,.93,75.22,.52,70.45,.39,71.98,.22,58.91,.20,33.98,.29,37.38,.05,90.00
2016.10.31-11:00,.30,68.52,.59,81.62,.85,86.10,1.00,75.99,1.08,72.37,1.02,79.93,.95,75.68,.55,68.64,.39,70.19,.22,56.26,.20,35.12,.29,38.52,.05,90.00
2016.10.31-12:00,.31,66.68,.61,78.95,.83,87.09,.99,75.05,1.08,72.60,1.00,80.08,.94,76.14,.57,68.15,.39,68.81,.21,53.22,.20,34.87,.27,38.25,.05,90.00
2016.10.31-13:00,.31,67.73,.63,75.96,.79,86.75,.98,73.76,1.08,72.65,.96,79.97,.92,76.73,.57,69.06,.38,68.27,.20,50.03,.18,32.76,.25,36.03,.04,90.00
2016.10.31-14:00,.32,70.62,.65,73.44,.76,85.31,.97,72.56,1.07,72.93,.92,79.78,.89,77.56,.56,71.15,.37,68.54,.18,46.92,.16,28.71,.22,31.87,.03,90.00
2016.10.31-15:00,.33,73.37,.67,71.86,.73,83.51,.97,71.98,1.07,73.80,.89,79.53,.86,78.41,.54,73.44,.36,68.80,.16,44.45,.13,23.52,.20,26.70,.02,90.00
2016.10.31-16:00,.36,75.46,.67,71.65,.71,82.55,.98,72.41,1.07,75.31,.87,79.06,.83,78.86,.51,74.99,.35,68.67,.16,43.99,.11,19.19,.18,22.18,.02,90.00
2016.10.31-17:00,.38,76.93,.66,72.29,.69,82.76,1.00,73.71,1.08,77.17,.86,78.16,.82,78.51,.48,75.12,.34,68.57,.16,46.91,.11,18.59,.18,19.93,.01,90.00
2016.10.31-18:00,.38,76.77,.64,72.83,.67,83.62,1.01,75.76,1.10,79.30,.88,77.13,.83,77.68,.47,73.80,.34,68.69,.18,51.85,.12,22.61,.20,20.58,.01,90.00
2016.10.31-19:00,.37,73.63,.63,72.46,.66,83.93,1.03,78.20,1.11,81.49,.90,76.23,.86,76.91,.48,71.47,.35,68.68,.21,56.56,.14,29.38,.22,24.02,.02,90.00
2016.10.31-20:00,.40,68.06,.65,71.46,.66,82.94,1.04,80.48,1.13,83.37,.93,75.35,.89,76.30,.51,68.60,.36,67.87,.25,59.91,.17,35.81,.25,28.84,.03,90.00
2016.10.31-21:00,.45,64.56,.69,71.70,.68,81.46,1.06,82.39,1.13,84.75,.97,74.34,.92,75.70,.54,65.70,.38,66.18,.27,62.14,.20,40.28,.29,33.33,.04,90.00
2016.10.31-22:00,.52,63.95,.75,73.85,.71,80.36,1.06,83.71,1.12,85.47,.99,73.10,.94,74.93,.59,63.34,.39,64.05,.29,63.72,.22,42.76,.32,36.70,.05,90.00
2016.10.31-23:00,.56,65.39,.80,77.41,.73,79.83,1.04,84.20,1.09,85.29,1.01,71.66,.95,74.03,.64,61.98,.41,61.98,.28,64.56,.24,43.66,.33,38.94,.05,90.00
2016.10.31-24:00,.59,68.69,.82,81.29,.74,79.50,1.00,83.62,1.03,83.96,1.02,70.21,.95,73.27,.69,62.28,.44,60.95,.26,64.18,.23,43.18,.32,40.16,.05,90.00
2016.11.01-01:00,.61,73.92,.83,84.24,.72,78.78,.95,81.81,.98,81.35,1.03,69.05,.94,72.95,.72,64.80,.46,62.04,.23,61.95,.21,40.88,.30,39.90,.05,90.00
2016.11.01-02:00,.60,80.24,.81,85.74,.70,77.18,.91,78.98,.93,77.76,1.02,68.50,.92,73.24,.73,69.31,.47,65.16,.20,57.90,.18,36.16,.26,37.52,.04,90.00
2016.11.01-03:00,.58,87.80,.78,86.07,.69,74.84,.88,75.86,.90,73.99,1.02,68.82,.89,73.97,.71,74.72,.46,68.81,.17,53.08,.14,28.77,.23,32.74,.03,90.00
2016.11.01-04:00,.57,94.70,.75,86.16,.69,72.93,.89,73.72,.91,71.25,1.03,70.07,.87,74.82,.67,79.86,.44,71.52,.15,49.16,.12,20.16,.20,26.71,.02,90.00
2016.11.01-05:00,.55,100.64,.71,86.63,.71,72.24,.90,73.22,.94,70.07,1.04,71.95,.85,75.38,.61,83.87,.40,72.89,.14,47.57,.11,14.43,.18,22.13,.01,90.00
2016.11.01-06:00,.52,107.41,.67,87.72,.72,72.91,.93,74.13,.97,70.17,1.06,73.99,.85,75.59,.54,85.95,.36,73.30,.15,48.79,.11,14.21,.19,20.62,.01,90.00
2016.11.01-07:00,.47,116.61,.60,88.93,.72,74.51,.94,75.74,1.01,70.94,1.07,75.92,.87,75.66,.50,85.41,.34,73.21,.16,51.86,.12,18.25,.21,21.81,.02,90.00
2016.11.01-08:00,.40,125.72,.52,87.98,.71,76.02,.94,77.27,1.04,71.79,1.09,77.54,.89,75.77,.48,82.39,.34,72.45,.19,54.86,.14,23.62,.23,24.65,.03,90.00
2016.11.01-09:00,.33,129.75,.46,83.20,.71,77.36,.94,78.40,1.06,72.67,1.10,79.01,.92,75.96,.48,78.03,.35,70.67,.21,56.26,.17,28.43,.26,28.21,.04,90.00
2016.11.01-10:00,.26,121.72,.44,76.41,.72,78.84,.94,78.86,1.09,73.50,1.11,80.30,.94,76.01,.50,73.50,.37,67.92,.22,55.47,.19,32.19,.28,31.97,.04,90.00
2016.11.01-11:00,.24,101.61,.45,70.54,.73,80.23,.94,78.27,1.11,73.99,1.11,81.18,.96,75.74,.53,69.78,.38,65.09,.23,52.78,.20,34.57,.29,35.32,.05,90.00
2016.11.01-12:00,.25,83.77,.47,66.13,.73,81.06,.94,76.43,1.13,73.97,1.09,81.50,.96,75.21,.56,67.65,.40,63.27,.22,48.95,.20,35.33,.28,37.79,.05,90.00
2016.11.01-13:00,.29,75.98,.49,62.74,.72,81.20,.93,73.67,1.13,73.68,1.05,81.47,.94,74.81,.58,67.35,.41,63.01,.21,44.65,.18,33.76,.26,38.57,.04,90.00
2016.11.01-14:00,.32,75.37,.52,59.54,.71,80.61,.93,70.70,1.12,73.54,1.00,81.28,.91,74.78,.58,68.71,.42,64.47,.20,40.89,.16,29.16,.22,36.76,.03,90.00
2016.11.01-15:00,.35,76.68,.55,57.24,.69,79.44,.94,68.24,1.11,73.76,.95,80.79,.89,74.97,.57,70.96,.42,67.25,.19,38.98,.13,21.89,.19,31.95,.02,90.00
2016.11.01-16:00,.37,78.12,.58,56.97,.67,78.23,.97,67.14,1.10,74.60,.91,80.01,.86,75.19,.55,73.02,.41,70.30,.18,39.79,.11,14.72,.17,25.44,.01,90.00
2016.11.01-17:00,.40,79.65,.60,58.05,.65,77.37,1.00,67.80,1.09,76.14,.89,79.11,.86,75.34,.52,73.96,.39,72.75,.18,43.90,.11,12.06,.16,20.22,.01,90.00
2016.11.01-18:00,.42,80.50,.61,59.16,.63,76.40,1.03,69.81,1.09,78.14,.89,78.25,.86,75.36,.51,73.43,.37,74.42,.19,50.88,.11,15.75,.17,18.13,.01,90.00
2016.11.01-19:00,.42,80.51,.62,59.16,.62,74.55,1.05,72.64,1.09,80.48,.90,77.67,.88,75.45,.50,71.61,.36,74.98,.22,58.32,.12,24.02,.19,19.78,.01,90.00
2016.11.01-20:00,.42,77.37,.64,57.62,.61,71.08,1.07,75.62,1.09,82.85,.91,77.20,.90,75.63,.52,69.07,.35,73.97,.25,63.95,.15,32.55,.22,24.12,.02,90.00
2016.11.01-21:00,.45,72.76,.67,56.18,.64,66.92,1.08,78.32,1.09,84.88,.93,76.54,.93,75.85,.55,66.78,.36,71.60,.28,67.43,.18,38.41,.26,28.87,.02,90.00
2016.11.01-22:00,.49,70.74,.72,56.70,.68,63.72,1.08,80.42,1.07,86.15,.95,75.31,.95,75.80,.60,65.23,.37,68.44,.29,69.21,.21,41.83,.29,33.06,.03,90.00
2016.11.01-23:00,.55,72.37,.77,59.74,.73,62.36,1.07,81.76,1.03,86.21,.96,73.42,.96,75.27,.66,64.44,.40,65.03,.28,69.49,.23,43.59,.31,36.48,.04,90.00
2016.11.01-24:00,.61,75.59,.80,64.05,.77,62.29,1.04,82.10,.98,84.74,.96,71.19,.96,74.43,.71,64.61,.43,62.23,.26,68.03,.23,43.97,.32,39.03,.05,90.00
2016.11.02-01:00,.64,78.30,.80,67.95,.80,62.49,1.00,81.14,.93,81.64,.97,68.95,.94,73.50,.74,66.11,.45,61.21,.22,64.42,.21,42.74,.30,40.35,.05,90.00
2016.11.02-02:00,.66,78.78,.77,70.80,.82,62.63,.96,78.94,.88,77.06,.97,66.98,.92,72.68,.75,69.16,.46,62.64,.19,58.24,.18,39.04,.27,39.69,.04,90.00
2016.11.02-03:00,.64,78.46,.72,72.31,.82,62.77,.93,76.06,.87,71.66,.98,65.59,.91,72.17,.74,73.61,.46,66.09,.16,49.69,.15,31.84,.22,36.22,.03,90.00
2016.11.02-04:00,.61,78.61,.67,72.60,.82,63.44,.92,73.33,.88,66.75,.99,65.21,.89,72.25,.71,78.78,.45,70.17,.14,41.07,.12,21.66,.19,29.92,.02,90.00
2016.11.02-05:00,.57,79.55,.64,72.69,.84,65.35,.92,71.51,.92,63.74,1.00,66.12,.88,72.97,.65,83.58,.41,73.28,.14,35.69,.11,12.38,.17,22.71,.01,90.00
2016.11.02-06:00,.55,81.15,.62,73.17,.86,68.50,.93,70.82,.97,63.03,1.02,68.09,.88,74.02,.59,86.76,.37,74.39,.14,35.28,.11,8.93,.17,18.05,.01,90.00
2016.11.02-07:00,.51,81.86,.60,73.38,.86,72.19,.94,71.14,1.02,64.14,1.05,70.68,.89,75.21,.53,87.44,.34,73.26,.16,38.81,.12,12.28,.18,17.69,.01,90.00
2016.11.02-08:00,.47,80.05,.57,71.50,.84,75.42,.95,72.16,1.06,66.38,1.06,73.52,.90,76.50,.50,85.45,.33,70.59,.19,43.39,.13,18.96,.20,20.32,.02,90.00
2016.11.02-09:00,.43,74.43,.56,66.79,.82,77.36,.96,73.39,1.10,69.08,1.08,76.21,.92,77.68,.49,81.47,.34,67.54,.22,46.89,.16,25.45,.22,24.08,.02,90.00
2016.11.02-10:00,.41,75.39,.58,61.14,.81,77.78,.98,74.34,1.13,71.81,1.09,78.44,.94,78.49,.50,76.79,.36,64.78,.24,48.67,.18,30.75,.25,28.14,.03,90.00
2016.11.02-11:00,.43,67.82,.63,57.26,.80,76.95,1.00,74.64,1.15,74.25,1.09,80.02,.94,78.81,.52,72.63,.38,62.59,.25,48.83,.19,34.64,.26,32.05,.04,90.00
2016.11.02-12:00,.47,62.91,.69,55.91,.79,75.29,1.01,74.04,1.16,76.06,1.07,80.83,.93,78.59,.55,69.54,.41,61.01,.26,47.68,.19,36.91,.26,35.37,.04,90.00
2016.11.02-13:00,.52,60.05,.75,56.56,.79,73.37,1.02,72.73,1.14,77.12,1.04,80.96,.91,78.07,.57,67.95,.43,60.65,.25,46.12,.18,37.18,.25,37.73,.04,90.00
2016.11.02-14:00,.58,58.79,.81,58.48,.79,71.70,1.03,71.26,1.11,77.50,.99,80.63,.88,77.66,.58,68.29,.45,62.33,.24,44.83,.15,33.28,.22,37.48,.03,90.00
2016.11.02-15:00,.66,58.41,.84,60.35,.79,70.18,1.04,70.05,1.08,77.21,.95,79.93,.84,77.44,.59,70.41,.46,66.14,.22,44.98,.12,23.70,.18,33.36,.02,90.00
2016.11.02-16:00,.74,59.92,.87,61.97,.79,68.87,1.06,69.60,1.05,76.52,.91,79.00,.82,77.24,.57,73.14,.46,70.82,.21,47.33,.11,11.38,.15,26.03,.01,90.00
2016.11.02-17:00,.77,62.44,.89,64.16,.81,68.35,1.09,70.48,1.04,76.09,.90,78.24,.80,76.84,.55,74.91,.44,74.91,.20,51.92,.10,3.59,.14,18.43,.00,90.00
2016.11.02-18:00,.80,64.86,.91,66.71,.84,68.54,1.11,72.53,1.04,76.27,.89,77.90,.79,76.14,.52,74.69,.41,77.70,.20,58.45,.10,4.66,.14,13.83,.00,270.00
2016.11.02-19:00,.82,66.72,.93,69.08,.87,69.33,1.13,75.40,1.04,77.21,.89,78.13,.80,75.48,.50,72.46,.38,78.77,.21,65.15,.11,13.22,.15,14.10,.00,270.00
2016.11.02-20:00,.85,67.94,.96,70.96,.92,70.48,1.14,78.60,1.05,78.73,.90,78.75,.81,75.08,.51,69.14,.36,77.98,.23,70.18,.13,24.53,.17,18.54,.00,90.00
2016.11.02-21:00,.89,68.51,1.00,72.06,.98,71.32,1.15,81.34,1.06,80.30,.90,79.14,.83,74.79,.53,66.42,.36,76.23,.25,73.24,.16,32.97,.20,23.43,.01,90.00
2016.11.02-22:00,.92,69.30,1.03,73.12,1.03,71.77,1.14,83.13,1.06,81.50,.91,78.78,.86,74.23,.58,65.09,.37,74.15,.26,74.55,.19,38.24,.24,27.62,.02,90.00
2016.11.02-23:00,.94,71.22,1.07,74.93,1.08,72.30,1.13,83.80,1.06,82.01,.91,77.43,.88,73.15,.63,64.77,.38,71.47,.25,73.94,.22,41.82,.27,31.53,.03,90.00
2016.11.02-24:00,.96,74.33,1.10,77.58,1.12,73.32,1.12,83.50,1.05,81.66,.92,75.24,.91,71.73,.68,65.16,.39,68.08,.23,70.52,.22,44.23,.29,35.11,.03,90.00
2016.11.03-01:00,.97,77.69,1.11,80.38,1.15,74.48,1.10,82.29,1.03,80.19,.92,72.43,.92,70.29,.71,66.29,.41,64.97,.19,63.33,.22,45.63,.28,38.08,.04,90.00
2016.11.03-02:00,.96,80.41,1.08,82.53,1.16,75.41,1.06,80.17,.99,77.51,.92,69.46,.92,69.18,.74,68.29,.43,63.54,.16,52.16,.19,45.31,.26,39.59,.04,90.00
2016.11.03-03:00,.93,81.87,1.03,82.99,1.15,76.27,1.03,77.49,.97,74.20,.93,67.14,.92,68.86,.74,71.13,.44,64.27,.15,38.78,.15,41.30,.23,38.12,.03,90.00
2016.11.03-04:00,.94,82.06,.99,82.26,1.15,77.49,1.02,74.98,.96,71.36,.95,66.16,.92,69.58,.73,74.55,.44,66.42,.15,27.65,.12,31.34,.19,32.74,.02,90.00
2016.11.03-05:00,.93,82.07,.98,81.79,1.16,79.40,1.03,73.34,.98,69.80,.97,66.64,.91,71.08,.69,78.00,.42,68.73,.15,21.84,.09,16.32,.16,24.74,.01,90.00
2016.11.03-06:00,.93,82.40,.99,82.09,1.18,82.05,1.05,72.91,1.00,69.68,.99,68.29,.90,72.97,.64,80.87,.39,70.19,.17,21.88,.09,4.35,.15,17.82,.01,90.00
2016.11.03-07:00,.94,83.32,.99,83.33,1.18,85.22,1.08,73.53,1.03,70.56,1.01,70.62,.90,74.94,.59,82.61,.35,70.24,.19,26.70,.10,2.23,.15,15.10,.01,90.00
2016.11.03-08:00,.95,84.40,.99,84.93,1.17,88.32,1.10,74.89,1.05,72.02,1.03,73.32,.90,76.99,.55,82.86,.33,68.65,.22,33.80,.11,8.28,.16,16.75,.01,90.00
2016.11.03-09:00,.95,85.12,.99,85.78,1.14,90.52,1.12,76.51,1.06,73.69,1.04,76.06,.90,78.99,.53,81.80,.33,66.15,.25,40.83,.13,16.30,.18,20.12,.01,90.00
2016.11.03-10:00,.92,86.86,.98,85.12,1.11,91.09,1.14,77.81,1.09,75.23,1.05,78.34,.91,80.51,.54,79.96,.35,63.82,.28,46.53,.15,22.96,.20,23.68,.02,90.00
2016.11.03-11:00,.89,88.79,.98,83.32,1.07,89.80,1.16,78.47,1.11,76.59,1.06,79.99,.91,81.33,.55,78.07,.38,61.92,.30,50.39,.17,28.19,.22,27.57,.02,90.00
2016.11.03-12:00,.88,91.50,.99,81.62,1.03,87.04,1.18,78.34,1.12,77.71,1.05,80.88,.89,81.24,.56,76.45,.41,60.36,.30,52.63,.18,32.04,.22,31.61,.03,90.00
2016.11.03-13:00,.88,94.74,1.01,81.20,1.00,83.79,1.19,77.57,1.12,78.37,1.03,80.94,.87,80.23,.57,75.36,.43,59.65,.29,53.98,.17,33.84,.22,34.83,.03,90.00
2016.11.03-14:00,.88,97.33,1.01,82.14,.99,81.05,1.20,76.66,1.11,78.52,1.00,80.38,.85,78.83,.57,75.33,.45,60.48,.27,55.08,.16,32.55,.20,35.99,.02,90.00
2016.11.03-15:00,.88,97.64,1.01,83.19,.99,78.84,1.22,76.17,1.08,78.24,.97,79.61,.84,77.80,.57,76.68,.47,63.13,.24,56.33,.13,26.84,.17,33.55,.01,90.00